User: anonymous   Login
Location: Gallinara
(44.0333°N, 8.2333°E)
Time: 02:15:47
(UTC+00:00)
Language:

Cosmos 2016 Rocket - Orbit

View from above orbital plane
View from above orbital plane
View from above satellite
View from above satellite

Ground track
Ground track

The orbit data is extracted from the following two-line orbital elements,

1 19922U 89028B   20338.17731830  .00000090  00000-0  75312-4 0  9997
2 19922  82.9601 208.3521 0035581 303.7193  56.0574 13.77226571591092
Epoch (UTC): 03 December 2020 04:15:20
Eccentricity: 0.0035581
inclination: 82.9601°
perigee height: 947 km
apogee height: 1000 km
right ascension of ascending node: 208.3521°
argument of perigee: 303.7193°
revolutions per day: 13.77226571
mean anomaly at epoch: 56.0574°
orbit number at epoch: 59109

The dashed part of the orbit path shows where the satellite is in the earth's shadow,  

DLR